This is the latest recevied weather packets stored in our database for station/object K42C. If no packets are shown the sender has not sent any weather packets the latest 10 day(s).
| Time | Temp. | Humidity | Pressure | Rain* | Wind** | Luminosity | Snow |
|---|---|---|---|---|---|---|---|
| 1777930008 | 22.22° C | 41% | 960.5 hPa | 0 mm | 4.02 m/s, 186° | - | - |
| 1777929608 | 21.67° C | 41% | 960.5 hPa | 0 mm | 5.36 m/s, 173° | - | - |
| 1777929210 | 22.22° C | 41% | 960.7 hPa | 0 mm | 5.36 m/s, 184° | - | - |
| 1777928809 | 22.22° C | 40% | 960.8 hPa | 0 mm | 4.02 m/s, 203° | - | - |
| 1777928412 | 22.22° C | 40% | 960.8 hPa | 0 mm | 5.36 m/s, 221° | - | - |
| 1777928011 | 22.22° C | 39% | 960.9 hPa | 0 mm | 4.47 m/s, 184° | - | - |
| 1777927614 | 22.22° C | 39% | 961 hPa | 0 mm | 4.47 m/s, 257° | - | - |
| 1777926815 | 22.78° C | 36% | 960.9 hPa | 0 mm | 5.36 m/s, 204° | - | - |
| 1777926415 | 22.78° C | 36% | 960.9 hPa | 0 mm | 6.26 m/s, 211° | - | - |
| 1777926017 | 22.22° C | 36% | 961 hPa | 0 mm | 2.24 m/s, 224° | - | - |
| 1777925616 | 22.22° C | 35% | 961.2 hPa | 0 mm | 5.36 m/s, 193° | - | - |
| 1777925219 | 22.22° C | 34% | 961.2 hPa | 0 mm | 4.02 m/s, 181° | - | - |
| 1777924818 | 22.22° C | 35% | 961.3 hPa | 0 mm | 4.92 m/s, 184° | - | - |
| 1777924421 | 22.22° C | 35% | 961.3 hPa | 0 mm | 4.47 m/s, 243° | - | - |
| 1777924020 | 22.22° C | 33% | 961.3 hPa | 0 mm | 3.58 m/s, 212° | - | - |
| 1777923622 | 22.78° C | 32% | 961.2 hPa | 0 mm | 4.47 m/s, 181° | - | - |
| 1777923222 | 22.78° C | 32% | 961.4 hPa | 0 mm | 5.36 m/s, 186° | - | - |
| 1777922824 | 22.78° C | 31% | 961.2 hPa | 0 mm | 3.58 m/s, 242° | - | - |
| 1777922423 | 22.78° C | 32% | 961.4 hPa | 0 mm | 4.02 m/s, 226° | - | - |
| 1777922026 | 22.78° C | 32% | 961.4 hPa | 0 mm | 4.47 m/s, 250° | - | - |
| 1777921625 | 22.78° C | 31% | 961.3 hPa | 0 mm | 4.47 m/s, 242° | - | - |
| 1777921228 | 22.78° C | 30% | 961.4 hPa | 0 mm | 5.81 m/s, 219° | - | - |
| 1777920827 | 22.78° C | 30% | 961.4 hPa | 0 mm | 4.92 m/s, 187° | - | - |
| 1777920430 | 22.78° C | 29% | 961.5 hPa | 0 mm | 5.81 m/s, 211° | - | - |
| 1777920029 | 22.78° C | 31% | 961.5 hPa | 0 mm | 4.02 m/s, 208° | - | - |
* Rain latest hour (hover to see other rain measurements)
** Current wind speed in m/s (hover to see current wind gust speed)